Regional Weather Roundup
Issued by NWS Mt. Holly, NJ

Home | Current Version | Previous Version | Text Only | Print | Product List | Glossary On
Versions: 1 2 3 4 5 6 7 8 9 10 11 12 13 14 15 16 17 18 19 20 21 22 23 24 25 26 27 28 29 30 31 32 33 34 35 36 37 38 39 40 41 42 43 44 45 46 47 48 49 50
000
ASUS41 KPHI 301311
RWRPHI

REGIONAL WEATHER ROUNDUP
NATIONAL WEATHER SERVICE MOUNT HOLLY NJ
900 AM EDT SAT MAY 30 2015

NOTE:  "FAIR" INDICATES FEW OR NO CLOUDS BELOW 12,000 FEET WITH NO
SIGNIFICANT WEATHER AND/OR OBSTRUCTIONS TO VISIBILITY.

 * = STATION DOES NOT REPORT PRECIPITATION (E.G. RAIN, SNOW, ETC.)
        OR FOG.

NJZ015>026-301400-
SOUTHERN NEW JERSEY

CITY           SKY/WX    TMP DP  RH WIND       PRES   REMARKS
POMONA         MOSUNNY   75  66  73 S7        30.23S
RIO GRANDE*    SUNNY     73  64  73 S7        30.25S
MILLVILLE      PTSUNNY   74  68  81 SW8       30.23S
WRIGHTSTOWN    MOSUNNY   74  67  80 S9        30.20S
MOUNT HOLLY    PTSUNNY   75  67  76 VRB5      30.21S
TRENTON        CLOUDY    71  66  84 S7        30.21S

$$
NJZ001>014-301400-
NORTHERN NEW JERSEY

CITY           SKY/WX    TMP DP  RH WIND       PRES   REMARKS
SUSSEX         MOSUNNY   72  64  76 VRB7      30.21S
ANDOVER*         N/A     71  64  78 SW9       30.21S
MORRISTOWN     CLOUDY    75  68  78 SW8       30.22S
NEWARK         MOSUNNY   75  66  73 S8        30.21S
TETERBORO      MOSUNNY   74  64  71 S10       30.20S
CALDWELL       PTSUNNY   72  63  73 W6        30.21S
SOMERVILLE     CLOUDY    70  65  84 CALM      30.20S
ALLAIRE*       SUNNY     73  63  68 S8        30.22S
TOMS RIVER*    SUNNY    N/A N/A N/A SW7       30.22S

$$
PAZ043-044-047-054-055-060>062-066>071-301400-
EASTERN PENNSYLVANIA

CITY           SKY/WX    TMP DP  RH WIND       PRES   REMARKS
PHILADELPHIA   CLOUDY    75  67  76 SW9       30.21S
NORTH PHILA    CLOUDY    73  65  75 SW7       30.23R
BLUE BELL      CLOUDY    73  68  83 S7        30.21S
DOYLESTOWN     CLOUDY    70  32  24 SW7       30.21S
QUAKERTOWN*    CLOUDY    68  66  94 SW6       30.22S
POTTSTOWN      CLOUDY    70  67  90 S3        30.22S
LANCASTER      PTSUNNY   74  66  76 S9        30.19S
COATESVILLE    CLOUDY    72  70  94 SW5       30.22S
READING        PTSUNNY   76  66  71 S8        30.19S
ALLENTOWN      CLOUDY    72  65  78 S7        30.21R
MOUNT POCONO   CLOUDY    68  63  84 SW12      30.22F
HAZLETON       CLOUDY    72  64  78 S3        30.24S
WILKES BARRE   PTSUNNY   74  65  73 SW3       30.18R

$$
DEZALL-MDZ008-012-015-019-020-301400-
DELAWARE AND EASTERN MARYLAND

CITY           SKY/WX    TMP DP  RH WIND       PRES   REMARKS
WILMINGTON     CLOUDY    71  67  87 S6        30.22S
DOVER          PTSUNNY   73  73 100 S10       30.20S
GEORGETOWN     CLOUDY    74  68  81 SW8       30.24S
EASTON         PTSUNNY   77  75  94 SW10      30.25F
PATUXENT       MOSUNNY   77  67  71 SW9       30.22S
OCEAN CITY     SUNNY     72  67  84 S6        30.24F
WALLOPS ISLAND MOSUNNY   75  70  84 S8        30.25S
CAMBRIDGE      PTSUNNY   77  68  73 S7        30.22S
SALISBURY      MOSUNNY   75  69  81 MISG      30.24S

$$
PAZ001-021-NYZ056-072-MDZ011-DCZ001-301400-
OTHER NEARBY LOCATIONS

CITY           SKY/WX    TMP DP  RH WIND       PRES   REMARKS
HARRISBURG     MOSUNNY   75  66  73 SW8       30.17S
STATE COLLEGE  SUNNY     73  64  73 S12       30.16S
WILLIAMSPORT   PTSUNNY   76  66  71 VRB3      30.13S
BINGHAMTON     CLOUDY    70  65  84 S9G18     30.15S
NEW YORK CITY  SUNNY     73  64  73 SW8       30.24S
BALTIMORE      PTSUNNY   75  67  76 SW8       30.19S
WASHINGTON DC  PTSUNNY   77  68  73 S10       30.20S

$$



USA.gov is the U.S. government's official web portal to all federal, state and local government web resources and services.